Location: Ermatingen
(47.6706°N, 9.0857°E)
Time: 15:44:41
(UTC+00:00)

SWAS - Pass Details

Date: 18 September 2020
Orbit: 581 x 590 km, 69.9° (Epoch: 24 October)

Event Time Altitude Azimuth Distance (km) Brightness Sun altitude
Rises 19:32:06 0° 332° (NNW) 2,829 8.8 -20.7°
Reaches altitude 10° 19:34:22 10° 335° (NNW) 1,923 7.8 -21.1°
Maximum altitude 19:38:40 69° 59° (ENE) 631 4.4 -21.7°
Enters shadow 19:38:55 67° 86° (E) 640 4.3 -21.8°
